This is the latest recevied weather packets stored in our database for station/object KR4ELZ. If no packets are shown the sender has not sent any weather packets the latest 10 day(s).
| Time | Temp. | Humidity | Pressure | Rain* | Wind** | Luminosity | Snow |
|---|---|---|---|---|---|---|---|
| 1777584396 | 18.33° C | 48% | 1014.8 hPa | 0 mm | - | 150 W/m² | - |
| 1777584093 | 18.33° C | 44% | 1014.7 hPa | 0 mm | - | 183 W/m² | - |
| 1777583792 | 18.89° C | 43% | 1014.7 hPa | 0 mm | - | 111 W/m² | - |
| 1777583487 | 18.33° C | 45% | 1014.7 hPa | 0 mm | - | 266 W/m² | - |
| 1777583187 | 18.33° C | 44% | 1014.9 hPa | 0 mm | - | 232 W/m² | - |
| 1777582883 | 18.33° C | 45% | 1015 hPa | 0 mm | - | 259 W/m² | - |
| 1777582581 | 18.89° C | 44% | 1015 hPa | 0 mm | - | 215 W/m² | - |
| 1777582275 | 19.44° C | 41% | 1015 hPa | 0 mm | - | 299 W/m² | - |
| 1777581973 | 20° C | 42% | 1014.8 hPa | 0 mm | - | 228 W/m² | - |
| 1777581669 | 18.89° C | 44% | 1014.9 hPa | 0 mm | - | 363 W/m² | - |
| 1777581363 | 18.89° C | 43% | 1015 hPa | 0 mm | - | 341 W/m² | - |
| 1777581057 | 19.44° C | 45% | 1015 hPa | 0 mm | - | 346 W/m² | - |
| 1777580756 | 18.89° C | 46% | 1015.1 hPa | 0 mm | - | 390 W/m² | - |
| 1777580454 | 18.89° C | 45% | 1015.1 hPa | 0 mm | - | 390 W/m² | - |
| 1777580153 | 18.33° C | 45% | 1015.2 hPa | 0 mm | - | 345 W/m² | - |
| 1777579851 | 18.33° C | 45% | 1015.2 hPa | 0 mm | - | 263 W/m² | - |
| 1777579550 | 18.33° C | 44% | 1015.4 hPa | 0 mm | - | 254 W/m² | - |
| 1777579244 | 18.89° C | 43% | 1015.4 hPa | 0 mm | - | 247 W/m² | - |
| 1777578940 | 18.33° C | 45% | 1015.7 hPa | 0 mm | - | 216 W/m² | - |
| 1777578635 | 18.89° C | 45% | 1015.8 hPa | 0 mm | - | 194 W/m² | - |
| 1777578335 | 18.89° C | 44% | 1015.8 hPa | 0 mm | - | 259 W/m² | - |
| 1777578032 | 19.44° C | 44% | 1015.9 hPa | 0 mm | - | 258 W/m² | - |
| 1777577732 | 18.89° C | 45% | 1015.9 hPa | 0 mm | - | 311 W/m² | - |
| 1777577429 | 18.89° C | 46% | 1015.7 hPa | 0 mm | - | 294 W/m² | - |
| 1777577126 | 19.44° C | 43% | 1015.8 hPa | 0 mm | - | 301 W/m² | - |
* Rain latest hour (hover to see other rain measurements)
** Current wind speed in m/s (hover to see current wind gust speed)